Location: Archamps
(46.1365°N, 6.1329°E)
Time: 07:01:42
(UTC+00:00)

Cosmos 1140 Rocket - Pass Details

Date: 28 January 2023
Orbit: 744 x 766 km, 74.1° (Epoch: 21 March)

Event Time Altitude Azimuth Distance (km) Brightness Sun altitude
Rises 18:04:03 0° 196° (SSW) 3,203 7.1 -15.6°
Reaches altitude 10° 18:06:25 10° 195° (SSW) 2,279 6.3 -16.0°
Maximum altitude 18:11:35 79° 109° (ESE) 773 3.4 -16.9°
Enters shadow 18:16:37 11° 24° (NNE) 2,230 5.6 -17.8°
